Lapse_Rate
5.9 6.2 6.8 6.6 6.5 6.4 6.4 6.4 6.5 6.9 7.3 7.2 7.6 7.6 8.2 8.7 8.6 8.5 8.6 8.2 8.0 7.9 8.0 7.9 7.7 7.7 7.9 7.8 7.7 7.8 7.5 7.0 6.6 6.6 6.3 6.4 6.3 6.4 6.6 6.7 6.8 7.1 7.2 7.2
6.4 7.2 7.1 6.9 6.9 6.8 6.9 6.8 7.2 7.2 7.3 7.3 7.1 7.1 7.6 7.8 8.0 8.3 8.4 8.4 8.1 8.1 8.2 8.0 7.6 7.5 7.7 8.0 7.7 7.7 7.3 7.2 6.7 6.7 6.6 6.8 6.7 6.5 6.7 7.0 7.2 7.2 7.3 7.3
6.7 7.4 7.3 7.0 7.1 7.1 7.1 7.2 7.2 7.2 7.0 7.0 7.0 6.6 7.0 7.5 7.7 8.0 8.3 8.5 8.1 7.6 7.5 7.8 7.9 7.9 8.3 8.5 8.0 7.6 7.8 7.3 6.6 6.4 6.6 6.5 6.5 6.9 7.2 7.2 7.1 7.1 7.2 7.2
6.7 6.9 7.0 7.1 7.1 7.6 7.2 7.5 7.4 7.2 7.3 6.9 6.9 6.3 6.3 7.0 7.6 8.1 8.2 8.1 8.1 7.9 7.2 6.9 7.7 8.4 8.8 8.8 7.9 7.8 7.8 7.7 7.2 6.5 6.8 6.6 6.7 6.9 6.9 6.9 7.1 7.2 7.1 7.1
6.7 7.0 7.0 6.9 7.0 7.3 6.8 7.3 7.4 7.3 7.2 7.2 6.9 7.0 7.0 6.9 7.1 7.5 7.6 7.8 8.1 8.0 7.9 8.0 8.2 8.6 8.6 8.4 7.7 7.6 8.1 7.7 7.1 6.4 6.5 6.7 6.9 6.8 6.7 6.9 7.0 6.9 6.9 6.8
6.6 6.6 6.7 6.8 7.0 7.3 7.2 7.0 7.1 7.2 7.2 6.6 6.5 7.5 6.8 7.0 7.4 7.2 7.6 7.8 8.0 8.2 8.1 7.8 8.2 8.3 8.0 8.1 7.8 7.5 7.7 7.5 7.3 7.2 6.9 6.9 6.9 6.7 6.7 6.8 6.8 6.9 6.9 6.8
6.6 6.5 6.7 6.9 6.6 6.9 6.9 7.3 6.3 6.2 6.0 6.4 6.8 7.6 6.8 7.0 7.4 7.6 7.4 7.4 7.6 7.8 8.4 8.4 7.7 8.2 8.1 7.8 7.6 7.5 7.7 7.5 7.4 7.3 7.1 6.9 6.7 6.6 6.6 6.7 6.8 6.8 6.7 6.7
6.7 6.0 6.8 6.8 6.7 6.6 6.8 7.3 7.2 7.5 6.9 7.0 7.3 6.7 7.0 7.7 7.9 7.8 7.8 8.0 7.9 8.0 8.2 7.9 7.8 7.7 7.4 7.4 7.4 7.6 7.6 7.2 7.2 7.2 6.8 6.5 6.4 6.4 6.5 6.6 6.7 6.6 6.6 6.7
7.2 6.9 6.8 6.9 7.0 7.1 6.9 7.1 7.6 8.1 8.3 8.1 7.8 7.6 7.5 7.4 7.9 8.4 8.2 8.1 8.4 8.5 8.2 7.6 7.2 6.9 7.1 7.2 7.4 7.3 7.5 7.2 7.4 7.3 6.8 6.5 6.4 6.4 6.4 6.5 6.5 6.6 6.8 7.0
6.5 6.1 6.8 6.6 6.3 6.5 7.1 7.1 6.9 7.3 7.8 8.2 8.3 8.5 8.5 8.4 8.6 8.5 8.3 7.9 8.0 8.1 7.9 7.7 7.6 7.5 7.3 6.9 7.3 7.3 7.5 7.5 7.8 7.6 6.9 6.5 6.6 6.6 6.6 6.7 6.8 6.8 7.1 7.2
6.4 6.1 6.2 6.3 6.3 6.5 6.8 7.0 7.4 7.5 7.6 7.8 7.3 7.2 8.2 8.3 8.5 8.3 8.1 8.0 7.6 7.5 7.3 7.3 7.2 7.2 7.0 7.0 7.3 7.3 7.7 7.9 8.0 7.6 7.2 6.6 6.7 6.7 6.8 6.7 7.0 7.2 7.3 7.3
5.3 6.0 6.0 6.2 6.5 6.7 7.5 7.3 7.3 7.5 7.8 7.9 7.8 7.8 8.1 8.0 7.4 7.2 6.9 7.4 6.5 6.7 6.5 6.9 6.1 6.6 7.0 7.1 7.2 7.7 7.9 7.9 7.8 7.6 7.3 6.9 6.9 7.0 7.1 7.1 7.2 7.3 7.4 7.4
5.3 5.5 6.1 6.2 6.4 6.9 7.5 7.7 8.1 8.1 7.5 7.2 7.3 7.6 8.2 7.3 7.2 6.6 6.4 6.8 6.9 6.8 6.6 6.8 6.6 6.8 7.2 7.3 7.9 8.1 7.9 7.9 7.6 7.5 7.5 7.4 7.3 7.4 7.4 7.3 7.4 7.5 7.6 7.5
5.9 6.1 6.5 6.8 7.1 7.3 7.1 7.7 8.0 7.8 6.9 6.8 7.0 7.4 7.6 7.9 7.8 7.5 7.2 6.1 6.3 6.5 6.5 6.4 6.1 6.8 7.3 7.3 7.4 7.7 7.9 7.9 7.6 7.3 7.5 7.7 7.5 7.4 7.4 7.3 7.4 7.5 7.5 7.2
6.9 6.9 7.1 7.2 7.4 7.1 7.1 7.3 7.8 8.0 7.8 7.1 7.0 7.3 7.8 7.3 7.6 7.8 6.7 7.0 6.6 6.4 6.2 6.8 6.7 7.2 7.5 7.7 7.5 7.3 7.6 7.7 7.6 7.3 7.4 7.5 7.2 6.9 7.2 7.2 7.2 7.2 7.3 7.3
7.4 7.3 7.5 7.5 7.3 7.2 7.2 7.6 7.2 7.5 7.9 8.0 8.1 7.7 8.2 7.9 7.8 7.0 7.3 7.1 7.0 7.0 7.2 7.2 7.6 7.6 7.9 7.9 7.4 7.6 7.5 7.5 7.4 7.3 7.3 7.3 7.1 7.0 6.6 6.6 6.6 6.9 6.7 6.9
7.0 6.9 7.6 7.5 7.3 7.3 7.5 8.1 7.3 7.7 8.1 8.2 7.5 8.3 8.1 7.9 7.9 7.7 7.5 7.3 7.3 7.3 7.8 7.8 7.9 7.9 7.9 7.4 7.5 7.4 7.6 7.5 7.3 7.2 7.1 7.0 7.1 7.1 7.0 7.0 6.9 6.9 6.6 6.7
7.7 7.1 7.5 7.3 7.4 7.2 7.6 7.9 8.0 8.3 8.4 8.6 8.2 8.2 8.1 7.9 7.8 7.8 7.8 7.9 7.8 7.9 8.3 8.1 8.2 7.8 7.6 7.3 7.4 7.3 7.5 7.4 7.4 7.3 7.2 7.1 6.9 6.7 6.7 6.9 6.9 6.8 6.6 6.4
7.9 7.5 7.2 7.6 7.4 7.5 7.6 8.2 8.2 8.1 8.1 8.1 8.0 8.3 8.0 8.0 7.8 8.0 8.0 8.4 8.4 8.3 8.2 8.2 8.1 7.8 7.5 7.2 7.3 7.4 7.5 7.6 7.5 7.4 7.3 7.1 6.9 6.8 6.7 6.8 6.9 6.7 6.5 6.5
7.1 7.3 7.1 7.1 7.2 6.9 8.0 8.2 8.3 8.1 7.7 8.2 8.3 8.2 8.0 8.0 7.9 8.2 8.2 8.0 7.9 8.0 8.2 8.1 8.1 7.7 7.5 7.5 7.4 7.6 7.7 7.6 7.6 7.5 7.2 7.2 7.2 7.1 6.7 6.7 6.8 6.7 6.7 6.7
7.3 7.4 7.4 7.2 7.2 7.2 7.8 7.9 8.3 8.1 8.2 8.2 8.2 8.1 8.0 8.0 8.1 8.2 8.1 8.0 7.8 7.8 7.7 7.5 7.5 7.3 7.3 7.5 7.6 7.5 7.5 7.6 7.5 7.3 7.2 7.4 7.2 7.0 7.0 6.5 6.6 6.7 6.6 6.4
6.9 7.0 7.6 7.7 7.8 7.4 7.6 7.5 7.4 7.7 8.1 8.3 8.2 8.0 7.7 7.7 8.0 7.9 7.9 7.8 7.7 7.7 7.9 7.2 6.8 6.9 7.1 7.4 7.4 7.6 7.6 7.5 7.3 7.1 7.2 7.2 7.3 7.1 7.0 6.6 6.5 6.3 6.5 6.2
7.2 6.8 6.1 6.5 7.4 7.5 7.7 7.2 7.3 7.9 7.9 8.1 7.8 7.5 7.6 7.4 7.6 7.7 7.5 7.1 7.1 7.2 7.3 7.3 7.3 7.3 7.2 7.4 7.4 7.6 7.6 7.4 7.2 7.2 7.3 7.2 7.2 7.1 6.9 6.8 6.7 6.7 6.5 6.4
6.8 6.8 6.4 6.5 7.3 7.1 7.6 7.4 7.3 7.8 7.9 7.6 7.5 7.5 7.5 7.6 7.6 7.5 7.3 7.3 7.2 7.1 6.7 7.1 7.2 7.4 7.5 7.6 7.5 7.3 7.2 7.2 7.1 7.0 7.0 6.9 6.8 6.5 6.7 6.6 6.6 6.4 6.3 6.2
6.5 6.2 6.9 7.0 7.3 7.2 7.2 7.5 7.7 7.9 7.8 7.7 7.7 7.6 7.6 7.6 7.8 7.8 7.7 7.6 7.1 7.1 7.2 6.9 7.1 7.2 7.3 7.2 7.0 7.1 7.1 7.0 6.9 6.9 6.8 6.7 6.5 6.3 6.5 6.4 6.1 6.2 6.0 5.5
6.8 6.8 6.9 7.2 7.2 7.1 7.5 7.6 7.7 7.8 7.7 7.5 7.5 7.5 7.5 7.4 7.6 7.5 7.4 7.3 7.1 6.9 7.0 6.8 7.2 7.0 7.2 7.0 7.0 7.1 6.9 6.7 6.8 6.7 6.5 6.5 6.3 6.2 6.2 6.4 6.6 6.3 5.9 6.0
Wind_Speed
3 3 8 11 14 14 7 9 10 4 8 5 8 9 10 9 7 8 9 10 16 17 14 17 17 17 17 15 15 15 14 12 10 8 8 5 4 3 3 7 10 12 12 12
1 8 14 12 13 13 14 11 7 6 4 6 12 22 10 7 9 7 11 9 8 11 17 19 20 18 18 17 16 16 16 14 10 8 5 4 4 3 4 5 9 11 11 12
7 8 4 6 6 7 6 5 5 8 3 3 5 17 7 5 7 7 8 12 15 22 23 20 20 19 17 18 16 15 15 14 13 11 8 6 6 4 3 3 3 5 11 11
6 5 2 4 3 2 7 7 8 5 3 5 4 13 14 12 14 14 15 9 19 21 18 18 20 19 19 16 14 13 13 13 10 12 10 13 6 6 3 3 3 4 10 10
8 5 7 6 8 4 17 9 9 4 4 3 9 5 18 1 9 19 19 17 17 24 25 26 24 22 18 15 12 10 10 10 9 12 14 10 8 4 4 4 6 5 6 10
8 5 5 7 10 7 11 5 8 4 4 8 17 7 15 10 12 10 10 9 13 25 21 18 17 18 14 13 12 11 12 8 11 12 11 12 13 11 8 5 5 4 3 4
7 11 8 14 18 10 6 4 5 3 3 13 15 8 16 13 7 7 4 5 6 16 20 19 19 15 14 14 14 12 14 9 10 10 10 12 14 14 13 10 6 6 4 2
5 21 3 2 7 7 15 8 5 7 10 15 8 7 7 9 9 9 12 15 16 15 13 15 16 17 16 15 15 14 14 12 9 10 10 11 13 8 8 8 7 5 4 4
5 12 20 10 15 9 14 9 7 7 12 9 7 7 8 2 5 6 5 14 17 19 19 20 17 14 13 14 15 15 14 12 11 10 8 9 8 9 9 9 8 5 5 4
3 6 14 17 8 8 7 3 4 3 6 16 5 5 5 2 4 8 9 6 2 6 11 11 13 16 15 15 13 12 13 14 11 11 9 8 9 9 10 10 9 7 6 6
9 5 6 12 5 1 4 4 3 3 4 5 4 4 3 5 6 3 4 7 5 7 2 9 10 13 15 13 14 13 12 10 11 11 8 9 9 11 10 10 8 7 7 7
20 9 15 24 23 18 13 13 7 4 5 3 3 6 4 4 5 7 8 5 5 5 2 3 6 12 14 16 14 14 13 13 10 10 10 10 9 10 10 9 8 6 8 9
4 3 7 8 7 4 8 13 12 3 3 7 5 3 4 9 6 7 4 5 6 7 5 7 8 14 15 16 15 16 14 14 12 12 12 10 10 9 8 8 8 9 9 8
15 18 17 13 14 10 8 9 11 7 3 2 7 10 15 9 4 6 4 8 5 2 11 11 10 15 14 15 15 15 14 15 15 13 13 12 11 10 10 8 9 9 8 9
4 14 21 20 17 16 14 18 19 16 13 9 9 15 25 12 12 8 7 9 14 13 15 21 16 16 16 14 14 14 15 15 15 15 15 14 15 12 11 9 8 10 9 8
6 8 13 22 18 18 21 27 21 20 20 16 18 25 17 10 11 12 18 13 15 18 20 22 22 18 16 17 17 16 15 15 15 14 13 12 13 16 13 12 9 9 9 9
9 7 4 4 4 6 9 21 16 20 17 15 16 21 14 7 9 7 9 6 3 5 8 11 14 17 18 19 19 18 17 15 15 15 14 14 14 13 13 12 11 9 11 10
17 15 5 4 2 9 6 4 14 17 15 10 13 15 10 4 5 6 2 3 1 2 3 5 4 10 16 15 15 15 16 17 16 15 15 15 14 13 13 12 11 10 9 10
19 16 6 4 7 9 13 12 5 8 1 4 9 4 3 6 2 2 1 3 2 2 4 2 3 6 11 14 17 17 15 16 15 15 15 15 15 14 13 13 12 10 9 9
8 16 12 4 5 5 5 2 6 1 2 6 6 6 6 6 2 3 3 3 2 1 1 4 6 3 13 13 16 18 17 16 16 15 15 15 14 15 15 13 12 10 10 10
7 5 7 7 4 5 4 4 3 2 5 2 6 2 4 4 4 4 5 4 3 4 4 3 4 3 11 15 17 16 16 16 14 14 14 14 13 13 13 11 10 10 8 10
5 4 3 2 3 5 5 5 1 3 3 4 3 4 4 5 6 5 5 2 2 3 3 3 5 8 8 13 14 14 14 13 15 15 15 14 14 12 10 13 9 8 11 11
4 2 3 5 3 3 2 11 11 3 4 5 4 5 8 8 7 7 5 6 4 5 5 4 7 10 9 11 12 14 12 15 15 14 14 14 14 12 12 11 10 10 11 10
6 11 5 11 4 5 6 10 17 8 7 5 8 7 8 8 7 7 7 6 2 2 5 7 9 11 9 9 11 12 14 15 16 15 14 13 12 11 10 8 9 10 10 9
11 9 7 6 14 13 11 14 15 6 7 6 6 6 8 9 7 8 7 7 6 5 4 8 11 11 11 11 13 14 14 15 14 14 13 12 10 12 9 8 9 9 9 12
4 5 3 2 15 12 7 6 5 6 7 5 6 4 8 9 9 8 7 7 6 7 6 8 7 12 11 13 13 13 14 15 15 13 10 10 9 8 7 8 4 8 15 14
Wind_Direction
239 189 230 223 224 241 255 260 258 258 282 320 281 273 275 287 223 241 220 189 189 181 156 153 149 150 147 145 140 140 138 142 135 130 128 123 115 100 74 86 90 87 85 93
339 237 237 235 237 237 251 253 262 281 281 302 293 288 247 261 265 213 222 234 180 145 154 156 158 156 156 149 152 151 148 150 148 144 135 118 132 98 104 97 85 89 90 92
190 247 312 227 255 243 239 233 258 263 290 277 279 285 295 227 258 252 236 210 174 172 166 161 163 163 153 155 160 160 159 160 157 143 123 108 99 100 96 84 86 75 89 91
227 264 208 3 298 248 277 221 260 278 315 273 148 283 268 275 281 284 273 201 182 180 166 160 163 163 164 163 159 157 162 155 150 149 143 149 142 143 150 130 114 96 106 99
247 287 292 302 270 213 274 259 243 230 231 331 232 221 275 43 267 269 270 268 189 180 172 170 171 162 162 154 155 151 147 148 150 161 159 150 142 132 132 123 122 116 103 109
242 234 215 227 262 255 274 266 250 203 171 257 263 210 273 275 269 279 274 263 193 172 171 162 156 150 155 152 148 148 142 140 145 145 144 143 141 142 140 143 135 131 113 101
296 268 259 251 272 285 284 307 286 283 215 246 271 225 242 273 224 220 163 63 133 156 157 152 150 155 153 163 148 144 139 139 143 143 149 151 150 150 154 155 149 143 134 124
244 302 173 130 185 251 273 194 201 261 262 267 236 232 235 219 213 181 163 155 149 148 147 148 160 159 162 151 150 148 146 143 139 140 143 149 150 150 155 153 151 146 144 147
297 261 306 303 276 244 273 237 225 258 261 259 248 280 292 71 48 28 159 160 165 159 160 164 157 160 157 159 163 156 146 149 141 138 140 147 143 144 148 138 140 145 139 144
314 310 298 309 304 264 215 265 305 270 248 255 244 243 240 255 119 78 69 30 303 163 156 171 160 160 162 170 164 153 154 156 149 142 145 148 141 132 132 137 143 146 145 126
306 236 261 324 268 7 342 294 302 292 244 253 269 252 285 323 346 28 70 77 42 52 171 165 167 169 170 168 159 155 155 146 147 151 139 142 137 134 134 139 145 142 133 129
288 266 271 263 266 265 251 264 231 206 230 204 214 248 318 330 85 68 53 32 348 90 50 280 211 176 178 173 163 163 162 154 156 147 135 143 131 132 134 139 139 132 126 119
343 284 288 274 278 241 235 247 255 120 77 218 238 246 182 74 63 13 1 9 16 346 297 187 179 197 183 179 170 169 163 158 157 146 140 140 138 133 129 126 124 124 126 119
289 264 253 263 270 298 289 287 290 261 204 196 230 265 272 300 250 200 260 281 145 179 291 282 199 197 195 181 171 168 163 159 157 151 147 141 136 133 127 124 121 121 122 117
233 255 254 253 251 263 272 280 272 273 268 244 263 234 255 232 236 208 183 236 266 237 208 230 233 204 186 179 173 170 165 162 160 156 156 155 142 130 125 122 126 124 122 118
306 269 260 252 248 249 259 250 250 260 265 270 268 266 266 244 218 170 234 236 246 269 252 237 222 199 186 178 181 170 163 161 158 155 151 146 147 137 142 138 143 131 123 137
268 271 281 280 244 287 265 249 244 255 256 246 253 256 277 240 237 203 206 160 178 313 331 269 185 189 182 183 176 170 164 154 153 151 149 146 149 147 146 143 144 151 145 150
250 252 267 266 281 261 257 227 214 231 243 246 253 259 270 203 120 130 222 214 145 290 351 8 210 202 196 171 164 154 154 156 155 154 151 150 152 151 147 145 150 158 161 160
231 243 254 240 244 285 303 273 226 218 270 305 288 196 140 129 102 124 240 15 114 9 330 308 227 196 168 162 158 153 153 156 155 159 158 159 156 156 156 159 161 161 165 163
226 230 226 200 230 248 213 110 291 94 268 335 334 130 153 134 127 247 202 163 156 99 66 334 321 173 150 149 155 156 158 160 164 164 164 160 156 159 165 163 162 164 172 167
311 276 256 233 253 267 289 318 328 236 240 233 73 47 176 163 192 197 187 202 219 238 239 244 98 152 164 147 152 163 161 166 158 157 154 155 161 158 158 155 160 162 159 151
298 316 275 258 230 279 243 352 98 207 158 167 160 170 274 213 178 168 164 213 251 219 214 235 135 117 123 142 147 155 161 153 150 152 153 157 157 151 149 149 144 155 153 148
314 2 281 277 298 339 2 299 335 249 167 207 214 219 211 207 202 180 186 201 243 178 200 133 141 122 134 152 153 149 149 148 149 147 148 152 156 152 158 160 161 154 144 152
292 308 260 325 9 310 13 321 288 264 227 238 211 213 190 200 209 202 198 201 183 289 172 139 144 136 141 146 142 139 143 145 147 149 152 152 154 153 161 165 163 152 158 152
285 288 266 290 281 292 232 240 255 218 219 195 195 198 193 197 222 210 204 198 195 181 149 153 161 153 150 139 136 142 143 146 149 151 153 155 156 165 156 162 163 161 164 169
223 246 259 293 301 283 273 291 270 233 232 207 213 229 231 201 218 213 214 199 182 185 173 153 156 145 141 138 141 144 145 148 149 151 152 158 161 156 152 151 124 160 166 173